Location: Bli��� Lhota
(48.7570°N, 14.0120°E)
Time: 05:49:32
(UTC+00:00)

Lacrosse 5 rocket - Pass Details

Date: 18 September 2020
Orbit: 461 x 635 km, 57.0° (Epoch: 22 October)

Event Time Altitude Azimuth Distance (km) Brightness Sun altitude
Rises 18:07:42 0° 259° (W) 2,731 6.2 -10.3°
Reaches altitude 10° 18:09:59 10° 267° (W) 1,869 5.4 -10.6°
Maximum altitude 18:14:02 41° 339° (NNW) 859 2.6 -11.3°
Drops below altitude 10° 18:18:18 10° 50° (NE) 1,969 3.8 -12.0°
Enters shadow 18:19:33 - 55° (NE) 2,439 4.3 -12.2°
